Regional Weather Roundup
Issued by NWS Newport/Morehead, NC

Current Version | Previous Version | Graphics & Text | Print | Product List | Glossary Off
Versions: 1 2 3 4 5 6 7 8 9 10 11 12 13 14 15 16 17 18 19 20 21 22 23 24 25 26 27 28 29 30 31 32 33 34 35 36 37 38 39 40 41 42 43 44 45 46 47 48 49 50

092
ASUS42 KMHX 092124
RWRMHX
WEATHER ROUNDUP FOR EASTERN NORTH CAROLINA
NATIONAL WEATHER SERVICE NEWPORT/MOREHEAD CITY NC
400 PM EST FRI DEC 09 2016

NOTE: "FAIR" INDICATES FEW OR NO CLOUDS BELOW 12,000 FEET
WITH NO SIGNIFICANT WEATHER AND/OR OBSTRUCTIONS TO VISIBILITY

NCZ015>017-031-032-045>047-102-103-092200-
NORTH COAST

CITY           SKY/WX    TMP DP  RH WIND       PRES   REMARKS
EDENTON        CLEAR     42  18  38 CALM      30.37R
ELIZABETH CITY CLEAR     40  16  37 NW10G18   30.36R
KITTY HAWK     CLEAR     40  23  52 NW8       30.33R
MANTEO         CLEAR     40  20  45 N6        30.35R

$$

NCZ045>047-081-094-103-104-092200-
CENTRAL COAST

CITY           SKY/WX    TMP DP  RH WIND       PRES   REMARKS
FRISCO         CLEAR     42  22  44 NW8G17    30.33R

$$

NCZ095-097-098-100-101-092200-
SOUTHERN COAST

CITY           SKY/WX    TMP DP  RH WIND       PRES   REMARKS
BEAUFORT       CLEAR     44  23  43 N14       30.36R
CEDAR ISLAND   NOT AVBL
JACKSONVILLE   CLEAR     43  19  38 NW15G21   30.37R
PINEY ISLAND   CLEAR    N/A N/A N/A NW14      30.36R
WILMINGTON     SUNNY     44  20  38 NW12      30.37R


$$

NCZ011>013-027>030-043-044-078>080-089-090>093-098-092200-
COASTAL PLAIN

CITY           SKY/WX    TMP DP  RH WIND       PRES   REMARKS
AHOSKIE        CLEAR     38  14  38 NW3       30.38R
CLINTON        CLEAR     42  19  41 NW6       30.41R
ELIZABETHTOWN  SUNNY     43  20  38 NW8       30.39R
GOLDSBORO      CLEAR     41  15  34 NW10      30.37R
GREENVILLE     CLEAR     41  18  38 NW6       30.39R
HAVELOCK       CLEAR     43  20  39 N14       30.37R
KENANSVILLE    CLEAR     41  18  38 N10       30.39R
KINSTON        CLEAR     41  18  38 NW8       30.39R
NEW BERN       CLEAR     41  20  43 N7        30.38R
RICHLANDS      CLEAR     41  19  41 N5        30.38R
ROCKY MOUNT    CLEAR     40  17  39 NW13      30.39R
WASHINGTON     CLEAR     40  17  38 NW5       30.38R
WHITEVILLE     SUNNY     44  20  38 N5        30.38R

$$

AMZ130-135-150-152-154-156-158-170-250-252-270-ANZ085-086-088-633-658-670-092200-
MARINE OBSERVATIONS

STATION/POSITION TIME  TEMP    WIND        PRES    WAVE   SWELL
                       AIR SEA DIR/SP/G            HT/PER HT/PER
                 (UTC) (F)     (DEG/KT/KT) (MB)    (FT/S) (FT/S)
CHESAPEAKE LIGHT NOT AVBL
64 E VA BEACH    2050   42 59  320/ 19/ 25 1025.6    6/ 5   2/14
DUCK             2100   40 53  330/ 14/ 20 1026.8
2 E DUCK         NOT AVBL
OREGON INLET     2100   40 51  300/ 10/ 13 1027.3
13E OREGON INLT  NOT AVBL
HATTERAS CG      2100   41 54  340/ 14/ 17 1027.0
DIAMOND BUOY     2050   42 76  350/ 17/ 23 1026.7    5/ 9   3/ 9
CAPE LOOKOUT     2100   42     330/ 11/ 13 1027.4
BEAUFORT LAB     2100   42 52  340/  7/ 14 1026.9
30 SE NEW RVR IN 2108   46 69  350/ 12/ 17 1027.8
30 SE NEW RVR IN 2113      69                N/A     3/ 3
27 SE WRIGHTSVLE 2108   46 70  340/ 14/ 23 1027.6
5 SE WRIGHTSVLE  2108   43 61  330/ 17/ 25 1027.5
225 S CAPE HAT   2050   60 73  350/ 17/ 23 1023.6    6/ 8   2/12
41 SE CHARLESTON 2050   50 72  350/ 14/ 17 1027.4    5/ 6   2/ 9

$$




USA.gov is the U.S. government's official web portal to all federal, state and local government web resources and services.